Location: Grasslands National Park East Block
(49.0708°N, 106.5295°W)
Time: 00:25:17
(UTC-06:00)

Vanguard 1 - Pass Details

Date: 22 September 2019
Orbit: 653 x 3830 km, 34.3° (Epoch: 14 October)

Event Time Altitude Azimuth Distance (km) Brightness Sun altitude
Rises 01:14:51 0° 208° (SSW) 7,419 - -40.4°
Reaches altitude 10° 01:20:29 10° 200° (SSW) 6,670 - -40.3°
Maximum altitude 01:39:00 33° 147° (SSE) 5,181 - -39.8°
Exits shadow 01:40:32 33° 141° (SE) 5,165 13.3 -39.7°
Drops below altitude 10° 01:55:47 10° 93° (E) 6,121 14.2 -39.1°
Sets 02:00:32 0° 85° (E) 6,770 14.6 -38.8°
